Location: Cerezo de Arriba
(41.2389°N, 3.5585°W)
Time: 16:14:23
(UTC+00:00)

Cosmos 1570 Rocket - Pass Details

Date: 19 May 2025
Orbit: 759 x 785 km, 74.1° (Epoch: 22 June)

Event Time Altitude Azimuth Distance (km) Brightness Sun altitude
Exits shadow 21:19:37 15° 188° (S) 1,988 5.8 -17.1°
Maximum altitude 21:24:00 71° 106° (ESE) 812 3.9 -17.6°
Drops below altitude 10° 21:29:14 10° 24° (NNE) 2,322 6.8 -18.3°
Sets 21:31:38 0° 22° (NNE) 3,257 7.6 -18.5°
